Location: Donald C. Martin Observatory
(38.3885°N, 82.3916°W)
Time: 23:32:47
(UTC-05:00)

Cosmos 1484 Rocket - Visible Passes

Search period start: 24 February 2017 00:00
Search period end: 06 March 2017 00:00
Orbit: 507 x 563 km, 97.3° (Epoch: 24 February)

Date Brightness Start Highest point End Pass type
(mag) Time Alt. Az. Time Alt. Az. Time Alt. Az.
24 Feb 5.4 19:10:59 10° SSW 19:14:17 25° W 19:17:34 10° NW visible
25 Feb 5.0 19:01:53 10° SSW 19:05:27 32° W 19:08:59 10° NNW visible
26 Feb 4.4 18:52:53 10° S 18:56:38 40° W 19:00:20 10° NNW visible
27 Feb 5.7 06:29:11 10° NE 06:32:10 22° E 06:35:07 10° SSE visible
27 Feb 3.8 18:43:57 10° S 18:47:48 53° W 18:51:38 10° NNW visible
28 Feb 6.1 06:20:45 10° NE 06:23:19 18° E 06:25:52 10° SE visible
01 Mar 6.3 06:12:28 10° ENE 06:14:27 14° E 06:16:25 10° SE visible
02 Mar 6.7 06:04:43 10° ENE 06:05:34 11° E 06:06:25 10° ESE visible
04 Mar 6.4 19:36:49 10° WSW 19:38:29 12° W 19:40:08 10° WNW visible
05 Mar 6.1 19:27:12 10° SW 19:29:37 16° W 19:32:00 10° NW visible
